TimePST,TemperatureF,Dew PointF,Humidity,Sea Level PressureIn,VisibilityMPH,Wind Direction,Wind SpeedMPH,Gust SpeedMPH,PrecipitationIn,Events,Conditions,WindDirDegrees,DateUTC
12:50 AM,55.4,48.2,77,30.06,10.0,Calm,Calm,-,N/A,,Partly Cloudy,0,2012-11-21 08:50:00
12:53 AM,55.0,48.0,77,30.06,10.0,Calm,Calm,-,N/A,,Partly Cloudy,0,2012-11-21 08:53:00
1:16 AM,55.4,48.2,77,30.06,10.0,East,3.5,-,N/A,,Mostly Cloudy,90,2012-11-21 09:16:00
1:53 AM,57.9,52.0,81,30.06,9.0,ENE,3.5,-,N/A,,Overcast,70,2012-11-21 09:53:00
2:36 AM,57.2,53.6,88,30.06,6.0,East,3.5,-,N/A,,Haze,90,2012-11-21 10:36:00
2:53 AM,57.9,53.1,84,30.05,8.0,East,4.6,-,N/A,,Overcast,90,2012-11-21 10:53:00
3:53 AM,59.0,54.0,83,30.05,7.0,East,4.6,-,N/A,,Overcast,80,2012-11-21 11:53:00
4:24 AM,57.2,51.8,82,30.05,7.0,East,5.8,-,N/A,,Mostly Cloudy,80,2012-11-21 12:24:00
4:39 AM,57.2,51.8,82,30.05,8.0,East,5.8,-,N/A,,Scattered Clouds,90,2012-11-21 12:39:00
4:53 AM,57.0,52.0,83,30.05,7.0,East,4.6,-,N/A,,Partly Cloudy,90,2012-11-21 12:53:00
5:53 AM,57.0,52.0,83,30.06,6.0,ESE,3.5,-,N/A,,Haze,110,2012-11-21 13:53:00
6:53 AM,57.9,53.1,84,30.09,4.0,Calm,Calm,-,N/A,,Haze,0,2012-11-21 14:53:00
7:48 AM,57.2,53.6,88,30.10,6.0,ENE,3.5,-,N/A,,Haze,70,2012-11-21 15:48:00
7:53 AM,59.0,53.1,81,30.10,6.0,East,4.6,-,N/A,,Haze,80,2012-11-21 15:53:00
8:53 AM,60.1,53.1,78,30.11,6.0,East,3.5,-,N/A,,Haze,80,2012-11-21 16:53:00
9:53 AM,62.1,53.1,72,30.12,5.0,Calm,Calm,-,N/A,,Haze,0,2012-11-21 17:53:00
10:53 AM,64.0,53.1,67,30.09,6.0,SSE,4.6,-,N/A,,Haze,150,2012-11-21 18:53:00
11:53 AM,68.0,53.1,59,30.06,8.0,South,4.6,-,N/A,,Clear,170,2012-11-21 19:53:00
12:53 PM,69.1,54.0,58,30.04,9.0,Variable,4.6,-,N/A,,Partly Cloudy,0,2012-11-21 20:53:00
1:53 PM,70.0,53.1,55,30.02,10.0,Variable,3.5,-,N/A,,Clear,0,2012-11-21 21:53:00
2:53 PM,71.1,52.0,51,30.01,10.0,Calm,Calm,-,N/A,,Clear,0,2012-11-21 22:53:00
3:53 PM,68.0,54.0,61,30.01,8.0,SW,6.9,-,N/A,,Clear,220,2012-11-21 23:53:00
4:53 PM,64.0,54.0,70,30.01,6.0,SSW,4.6,-,N/A,,Haze,210,2012-11-22 00:53:00
5:53 PM,63.0,55.0,75,30.03,7.0,Calm,Calm,-,N/A,,Clear,0,2012-11-22 01:53:00
6:53 PM,62.1,55.0,78,30.04,6.0,Calm,Calm,-,N/A,,Haze,0,2012-11-22 02:53:00
7:53 PM,62.1,55.0,78,30.04,5.0,Calm,Calm,-,N/A,,Haze,0,2012-11-22 03:53:00
8:53 PM,60.1,54.0,80,30.05,5.0,Calm,Calm,-,N/A,,Haze,0,2012-11-22 04:53:00
9:53 PM,59.0,53.1,81,30.04,5.0,Calm,Calm,-,N/A,,Haze,0,2012-11-22 05:53:00
10:53 PM,57.9,52.0,81,30.05,5.0,Calm,Calm,-,N/A,,Haze,0,2012-11-22 06:53:00
11:53 PM,57.0,51.1,81,30.05,6.0,Calm,Calm,-,N/A,,Haze,0,2012-11-22 07:53:00